STARLINK-33796, 63515

Orbit data source: Space-Track

STARLINK-33796, 63515 is a payload satellite owned by SpaceX/Seattle (US) in LEO that was launched on Mon, 07 Apr 2025 UTC via an FALCON 9 launch vehicle from the Air Force Western Test Range (AFWTR). Payload-class satellites include a variety of spacecraft equipped with specific instruments for various scientific and technological missions. These include communications satellites like Starlink; space stations such as the ISS; scientific satellites like the Hubble; Earth observation satellites from companies like Planet Labs, Umbra, and HawkEye 360; GPS; miniature CubeSats for education and research; and military/defense satellites.

Loading next visibility...
Identifier
63515, 2025-071Y
Orbit
LEO
Last TLE update
2 days ago
Origin
Manufacturer
SpaceX/Seattle
Mission
Operational spacecraft
Bus & Motor
STARLINK V2MO, Unknown motor
Mass
575 kg wet, ~530 kg dry
Launch date (UTC)
2025-04-07 (3 weeks ago)
Launch vehicle
FALCON 9
Launch site
Air Force Western Test Range (AFWTR)
Object type
Payload
Rocket body
Debris
Shape & HBR
Unknown
Radar Cross Section
Large (>1 m²)

Expand to show TLE details & history

TLE from 2 days ago
0 STARLINK-33796
1 63515U 25071Y   25118.44696847 -.00001412  00000-0 -53443-5 0  9994
2 63515  53.1598 169.9542 0001241  78.9266 281.1894 15.74180887  4427
Epoch: 2025-04-28T10:43Z
Definitive object data (Epoch: 2025-04-28T10:43:38.075Z)
Latitude
0.00001°
Longitude
152.3847°
Altitude
347.718 km
Speed
7.702 km/s
True Right ascension
11h 19m 49s
True Declination
0° 00' 00"
Sunlit
Object was in full shadow at TLE epoch
Visualization TLE readout
Latitude
-33.39076°
Longitude
-8.17024°
Altitude
358.063 km
Speed
7.694 km/s
Apparent Right ascension
03h 17m 45s
Apparent Declination
-45° 33' 31"
Sunlit
Object is in daylight
Visualization observer readout
Local Sidereal Time
18:28:28
Azimuth
115.335° SE
Elevation
-55.056°
Doppler factor
1
Orbital elements
Apogee altitude
348.059 km
Perigee altitude
346.39 km
Semi-major axis
6,725.361 km
Eccentricity
0.0001241
Inclination
53.1598°
RAAN
169.9542°
Arg. of periapsis
78.9266°
True anomaly
281.17545°
Mean anomaly
281.1894°
Eccentric anomaly
281.18242°
Mean motion
3.93523 °/min
BSTAR
-0.0000053443
Orbital period
91.48 mins
Loading maneuver chart data...
Loading SW <> Apogee altitude chart data...
Loading historical data...
Loading historical data...
Loading historical data...
Loading historical data...
Loading historical data...
Loading historical data...
Loading historical data...

STARLINK-33796 Visibility forecast

Observer location: undefined°, undefined°

Span
Click to sort rows by Start time (UTC) header in descending order
Start Az.
Max El. time (UTC)
Max El. Az.
Max El.
End time (UTC)
End Az.
4 mins2025-04-30 11:58:23.208Z331.293° NNW2025-04-30 12:00:23.208Z47.859° ENE32.411°2025-04-30 12:02:23.208Z103.768° ESE
|